User: anonymous
Location: Caltech
(34.1382°N, 118.1253°W)
Time: 10:36:12
(UTC-07:00)
Language:

Tiros 1 despin weight - Orbit

View from above orbital plane
View from above orbital plane
View from above satellite
View from above satellite

Ground track
Ground track

The orbit data is extracted from the following two-line orbital elements,

1 00115U 60002D   14108.74162124  .00004629  00000-0  62136-3 0  3420
2 00115 048.1660 287.6343 0036327 057.6445 012.6626 14.80365410878838
Epoch (UTC): 18 April 2014 17:47:56
Eccentricity: 0.0036327
inclination: 48.1660°
perigee height: 603 km
apogee height: 653 km
right ascension of ascending node: 287.6343°
argument of perigee: 57.6445°
revolutions per day: 14.80365410
mean anomaly at epoch: 12.6626°
orbit number at epoch: 87883

The dashed part of the orbit path shows where the satellite is in the earth's shadow,  

DLR